TimeEST,TemperatureF,Dew PointF,Humidity,Sea Level PressureIn,VisibilityMPH,Wind Direction,Wind SpeedMPH,Gust SpeedMPH,PrecipitationIn,Events,Conditions,WindDirDegrees,DateUTC
12:04 AM,41.0,39.2,93,29.78,2.5,North,4.6,-,0.00,,Overcast,360,2012-12-18 05:04:00
12:20 AM,41.0,39.2,93,29.75,2.5,North,4.6,-,0.01,,Overcast,350,2012-12-18 05:20:00
12:27 AM,41.0,39.2,93,29.76,3.0,NW,5.8,-,0.01,Rain,Light Rain,320,2012-12-18 05:27:00
12:53 AM,42.1,39.9,92,29.75,2.5,NNW,4.6,-,0.03,Rain,Light Rain,340,2012-12-18 05:53:00
1:04 AM,42.8,39.2,87,29.74,3.0,North,5.8,-,0.01,Rain,Light Rain,350,2012-12-18 06:04:00
1:25 AM,42.8,41.0,93,29.73,4.0,Variable,4.6,-,0.02,Rain,Light Rain,0,2012-12-18 06:25:00
1:53 AM,46.9,45.0,93,29.71,4.0,NE,8.1,-,0.06,Rain,Light Rain,40,2012-12-18 06:53:00
2:53 AM,46.9,45.0,93,29.68,5.0,NE,6.9,-,0.07,Rain,Light Rain,40,2012-12-18 07:53:00
3:53 AM,46.9,45.0,93,29.65,4.0,NE,5.8,-,0.04,Rain,Light Rain,40,2012-12-18 08:53:00
4:44 AM,46.4,46.4,100,29.61,2.5,NE,4.6,-,0.02,,Overcast,40,2012-12-18 09:44:00
4:53 AM,46.9,46.0,97,29.61,2.5,NE,3.5,-,0.02,Rain,Light Rain,40,2012-12-18 09:53:00
5:53 AM,48.0,46.0,93,29.57,2.0,NE,6.9,-,0.02,,Overcast,50,2012-12-18 10:53:00
6:30 AM,48.2,46.4,93,29.54,4.0,ENE,6.9,-,0.02,Rain,Light Rain,60,2012-12-18 11:30:00
6:53 AM,48.9,46.9,93,29.54,6.0,NE,5.8,-,0.07,Rain,Light Rain,50,2012-12-18 11:53:00
7:29 AM,48.2,46.4,93,29.56,1.8,West,3.5,-,0.10,Rain,Heavy Rain,280,2012-12-18 12:29:00
7:40 AM,48.2,46.4,93,29.51,2.5,NE,10.4,-,0.15,Rain,Rain,50,2012-12-18 12:40:00
7:43 AM,48.2,46.4,93,29.52,3.0,NE,5.8,-,0.16,Rain,Light Rain,40,2012-12-18 12:43:00
7:53 AM,48.0,46.9,96,29.51,6.0,ENE,4.6,-,0.16,Rain,Light Rain,70,2012-12-18 12:53:00
8:03 AM,48.2,46.4,93,29.51,8.0,Calm,Calm,-,0.00,,Overcast,0,2012-12-18 13:03:00
8:22 AM,48.2,46.4,93,29.50,9.0,Calm,Calm,-,0.01,,Mostly Cloudy,0,2012-12-18 13:22:00
8:29 AM,48.2,46.4,93,29.50,10.0,Calm,Calm,-,0.01,,Mostly Cloudy,0,2012-12-18 13:29:00
8:40 AM,48.2,46.4,93,29.50,5.0,Calm,Calm,-,0.01,,Overcast,0,2012-12-18 13:40:00
8:53 AM,48.9,46.9,93,29.50,5.0,Calm,Calm,-,0.01,Rain,Light Rain,0,2012-12-18 13:53:00
9:31 AM,50.0,48.2,94,29.48,1.8,North,3.5,-,0.01,Rain,Light Rain,360,2012-12-18 14:31:00
9:39 AM,50.0,48.2,94,29.48,1.2,Calm,Calm,-,0.01,Rain,Light Rain,0,2012-12-18 14:39:00
9:53 AM,50.0,48.0,93,29.47,1.0,North,3.5,-,0.02,Rain,Light Rain,10,2012-12-18 14:53:00
10:53 AM,51.1,48.9,92,29.45,1.0,Calm,Calm,-,0.00,,Overcast,0,2012-12-18 15:53:00
11:53 AM,51.1,50.0,96,29.43,1.0,Calm,Calm,-,0.01,,Overcast,0,2012-12-18 16:53:00
12:12 PM,51.8,50.0,94,29.43,2.5,Calm,Calm,-,N/A,,Overcast,0,2012-12-18 17:12:00
12:20 PM,51.8,50.0,94,29.42,5.0,West,3.5,-,N/A,,Overcast,270,2012-12-18 17:20:00
12:38 PM,51.8,48.2,88,29.41,1.5,West,4.6,-,N/A,,Overcast,260,2012-12-18 17:38:00
12:53 PM,51.1,48.9,92,29.40,1.5,West,3.5,-,N/A,,Overcast,270,2012-12-18 17:53:00
1:00 PM,51.8,50.0,94,29.40,4.0,WNW,5.8,-,N/A,,Overcast,290,2012-12-18 18:00:00
1:15 PM,50.0,48.2,94,29.41,1.5,WSW,8.1,-,N/A,,Overcast,240,2012-12-18 18:15:00
1:53 PM,48.9,46.9,93,29.42,1.5,WSW,6.9,-,N/A,,Overcast,240,2012-12-18 18:53:00
2:50 PM,48.2,46.4,93,29.41,5.0,West,8.1,-,N/A,,Overcast,260,2012-12-18 19:50:00
2:53 PM,48.0,46.0,93,29.42,5.0,West,9.2,-,N/A,,Overcast,260,2012-12-18 19:53:00
3:53 PM,46.9,44.1,90,29.42,10.0,West,5.8,-,N/A,,Overcast,260,2012-12-18 20:53:00
4:53 PM,46.9,44.1,90,29.42,5.0,West,3.5,-,N/A,,Overcast,260,2012-12-18 21:53:00
5:10 PM,46.4,44.6,93,29.42,10.0,West,4.6,-,N/A,,Overcast,260,2012-12-18 22:10:00
5:28 PM,46.4,42.8,87,29.42,5.0,West,3.5,-,N/A,,Overcast,260,2012-12-18 22:28:00
5:53 PM,45.0,43.0,93,29.42,5.0,WNW,4.6,-,N/A,,Overcast,290,2012-12-18 22:53:00
6:51 PM,44.6,44.6,100,29.44,5.0,West,4.6,-,N/A,,Overcast,260,2012-12-18 23:51:00
6:53 PM,45.0,44.1,97,29.44,5.0,WSW,4.6,-,N/A,,Overcast,250,2012-12-18 23:53:00
7:14 PM,46.4,42.8,87,29.44,9.0,West,5.8,-,N/A,,Overcast,260,2012-12-19 00:14:00
7:53 PM,45.0,42.1,90,29.45,10.0,West,6.9,-,N/A,,Overcast,260,2012-12-19 00:53:00
8:47 PM,44.6,42.8,93,29.44,10.0,West,5.8,-,N/A,,Overcast,260,2012-12-19 01:47:00
8:53 PM,45.0,42.1,90,29.44,10.0,WSW,6.9,-,N/A,,Overcast,250,2012-12-19 01:53:00
9:53 PM,45.0,41.0,86,29.44,10.0,WSW,8.1,-,N/A,,Overcast,250,2012-12-19 02:53:00
10:53 PM,44.1,39.9,85,29.44,10.0,West,9.2,-,N/A,,Overcast,270,2012-12-19 03:53:00
11:53 PM,43.0,39.9,89,29.44,10.0,WNW,5.8,-,N/A,,Overcast,290,2012-12-19 04:53:00